Location: College Park
(38.9810°N, 76.9370°W)
Time: 06:06:40
(UTC-05:00)

OTV 5 (USA 277) - Pass Details

Date: 07 January 2018
Orbit: 404 x 417 km, 43.0° (Epoch: 07 September)

Event Time Altitude Azimuth Distance (km) Brightness Sun altitude
Exits shadow 06:41:46 12° 292° (WNW) 1,326 ? -8.8°
Maximum altitude 06:44:44 83° 17° (NNE) 409 ? -8.2°
Drops below altitude 10° 06:48:01 10° 109° (ESE) 1,453 ? -7.6°
Sets 06:50:07 0° 110° (ESE) 2,312 ? -7.3°
